GFSGL_700_spd_000.txt.gz
Wind_Speed
33 35 35 36 38 38 39 39 39 38 34 33 35 37 38 37 36 37 37 39 39 38 28 30 28 26 22 21 26 30 39 33 22 40 33 37 54 51 49 47 46 45 47
34 34 34 36 37 38 37 37 37 34 32 33 35 38 38 35 36 35 36 36 39 37 32 29 27 19 22 23 25 27 34 27 26 41 29 37 53 54 49 48 47 48 48
33 34 34 35 36 35 34 36 35 31 31 33 35 37 37 32 34 33 33 34 37 35 31 28 28 21 15 18 22 37 36 22 33 41 35 31 57 51 49 43 49 50 50
32 32 33 34 35 32 33 35 31 30 32 33 35 36 35 32 33 32 32 32 35 35 30 26 24 21 14 15 24 27 29 24 26 32 25 34 54 50 46 50 54 52 51
32 33 33 34 34 31 33 33 30 32 34 35 36 36 34 33 32 31 30 31 34 35 29 24 25 19 16 11 20 28 24 30 31 25 19 43 52 44 48 53 51 53 53
32 32 33 33 32 31 33 34 32 33 35 36 37 35 34 33 30 28 29 30 32 31 30 25 22 18 14 21 15 25 24 30 34 29 14 39 53 45 48 51 53 55 57
31 31 32 31 31 32 34 35 34 35 35 36 35 37 34 30 28 26 27 28 30 29 29 27 19 19 13 20 17 22 26 27 31 19 11 45 42 47 47 48 54 53 55
30 30 30 30 31 32 34 36 36 35 34 35 36 35 32 27 27 25 26 27 26 26 27 24 18 21 16 20 16 24 23 27 44 21 25 43 44 39 47 46 51 50 53
29 29 29 29 31 33 35 36 35 35 34 35 34 33 31 28 27 25 25 27 26 24 23 21 19 12 17 18 10 20 26 24 37 29 38 41 41 40 41 47 53 58 56
27 28 28 29 31 34 34 34 33 34 34 34 32 31 31 30 28 25 24 26 25 25 21 20 18 13 19 19 27 29 27 21 30 21 46 38 44 39 40 47 52 55 53
26 27 28 29 32 33 34 32 33 34 36 33 31 30 29 30 29 25 24 24 25 25 22 21 19 13 13 20 12 19 21 18 39 23 53 41 44 38 42 44 47 49 52
26 27 27 30 32 32 32 30 32 34 36 34 31 30 28 28 27 24 23 21 22 23 22 20 21 15 9 18 13 23 23 28 29 28 46 45 52 45 46 45 48 45 42
26 26 28 30 31 31 31 31 32 34 36 35 33 32 30 26 26 22 21 20 20 21 22 20 20 17 13 20 19 24 27 22 28 42 31 56 45 50 46 44 46 44 44
25 25 28 30 31 31 32 31 31 34 35 35 33 32 31 25 23 20 18 17 17 18 19 18 16 15 8 8 17 22 19 22 26 43 31 48 47 47 48 47 51 51 47
24 25 27 30 31 32 32 31 31 33 34 34 31 30 30 24 20 18 17 16 16 15 14 16 18 15 7 13 22 22 19 14 35 38 48 47 50 54 49 50 53 53 50
24 26 28 30 31 31 33 33 31 30 30 28 27 27 26 22 21 18 15 15 17 16 14 14 18 20 5 11 16 26 23 18 35 35 51 52 53 54 53 54 52 53 53
25 27 29 30 30 32 33 32 30 27 25 25 23 23 22 19 19 18 14 13 14 14 13 11 16 13 4 6 18 26 29 17 28 31 54 60 56 56 55 56 56 56 54
26 28 29 30 31 32 31 27 27 26 27 20 18 20 19 16 18 18 15 13 13 13 12 8 11 11 7 4 21 24 26 21 23 46 50 55 57 58 58 59 59 57 55
27 28 28 29 30 28 26 25 25 25 26 23 19 16 17 15 16 17 15 13 14 12 10 7 9 9 4 8 18 27 24 27 30 51 48 62 59 57 60 60 57 56 54
27 27 28 29 26 24 24 24 22 23 24 24 20 18 19 17 15 15 15 13 13 12 11 7 8 9 5 5 15 24 25 29 32 55 50 60 57 56 59 58 56 56 53
27 26 27 25 24 23 24 24 27 27 25 24 19 17 19 21 17 16 15 13 11 11 12 9 9 8 4 8 13 19 27 31 35 41 64 66 55 54 57 55 55 53 52
25 25 24 22 22 23 23 24 29 26 23 23 17 16 17 20 18 17 16 14 10 10 10 10 8 8 3 4 14 20 27 33 37 41 41 66 59 59 59 58 56 52 52
23 22 22 21 23 23 25 26 26 22 18 17 14 15 15 16 14 14 16 13 11 10 10 11 8 10 8 5 6 21 27 33 37 39 46 54 69 60 59 57 58 56 51
21 22 20 22 24 24 26 22 23 19 15 12 12 14 14 15 14 14 14 12 11 10 9 11 11 9 7 2 4 16 29 30 41 49 44 56 72 64 60 61 58 57 54
21 19 20 21 23 23 21 21 20 16 13 12 12 14 16 15 14 13 12 11 12 10 9 10 13 11 9 2 8 6 25 37 42 52 42 54 58 74 63 63 59 55 49
15 17 18 20 21 20 20 19 15 14 13 12 13 15 17 15 12 12 11 10 11 9 8 10 13 10 8 5 5 8 17 32 38 57 49 45 54 63 61 63 60 57 54

GFSGL_700_spd_003.txt.gz
Wind_Speed
25 26 26 28 29 31 31 33 35 35 37 37 34 30 29 30 31 32 31 31 33 33 32 35 33 33 34 34 28 28 25 29 25 40 41 30 48 43 43 46 44 47 45
25 26 27 28 30 30 31 33 34 35 37 36 32 30 30 30 31 32 31 30 32 32 33 31 34 34 32 22 24 15 25 19 27 23 34 31 50 41 49 49 45 45 43
26 28 28 28 30 30 32 32 33 35 37 34 31 30 30 31 32 32 33 30 31 30 32 31 33 33 28 25 17 16 24 16 25 32 18 18 31 44 43 49 44 44 43
28 28 28 29 30 30 32 31 33 35 36 34 31 30 30 32 32 33 34 30 31 30 30 31 30 29 27 21 18 21 15 20 33 26 19 24 29 44 47 54 48 47 42
28 28 28 29 30 30 31 31 32 34 36 34 32 31 31 33 34 33 32 30 30 29 29 30 29 26 24 15 18 7 11 29 28 18 16 25 28 37 45 55 48 47 44
28 27 28 29 29 29 30 30 32 35 36 34 32 32 33 34 33 30 29 30 29 29 28 31 28 24 21 8 15 16 20 22 25 19 14 28 23 40 51 53 51 46 49
27 28 28 29 29 29 29 30 32 35 35 33 33 33 33 32 29 28 27 30 28 26 27 31 26 20 19 10 8 24 12 17 23 18 18 22 20 45 52 54 52 45 49
27 28 28 29 28 29 28 29 32 35 34 33 32 32 32 29 26 26 27 29 27 26 25 27 27 19 15 12 15 19 14 18 22 19 23 19 37 54 55 43 40 42 51
26 27 28 27 27 28 27 28 32 34 33 32 31 30 30 28 25 26 28 30 28 25 25 23 26 17 13 10 19 19 20 24 23 20 25 10 30 55 47 45 44 51 56
26 27 27 26 26 26 26 29 31 32 33 32 30 28 28 29 27 27 29 31 29 26 22 20 22 16 15 9 15 23 19 25 25 20 27 19 22 50 49 49 48 54 56
27 26 25 26 26 25 26 28 30 31 32 32 30 28 27 29 29 26 30 31 30 27 23 19 20 15 15 7 17 21 22 23 23 19 24 16 45 53 47 43 48 49 52
25 23 24 25 23 24 27 27 28 30 31 31 31 28 27 28 28 25 28 28 26 25 23 20 19 15 15 12 10 24 13 22 25 25 27 30 46 49 50 42 44 44 42
22 22 24 23 23 26 28 27 28 28 30 31 31 28 29 26 25 22 25 25 22 22 21 21 19 17 15 13 3 15 21 23 28 25 26 38 37 48 49 44 40 40 44
21 22 22 22 25 26 27 27 28 28 29 30 29 27 28 23 21 20 22 22 20 18 19 18 19 16 16 15 2 14 19 29 28 24 31 43 38 48 45 42 47 49 48
19 21 22 24 26 27 28 26 27 27 27 27 26 27 27 21 18 18 21 23 19 17 17 15 13 14 18 9 12 12 28 30 25 24 28 45 41 47 42 49 49 50 48
19 21 23 25 27 28 27 26 25 25 23 24 23 26 24 20 18 17 19 20 17 17 18 15 10 11 14 8 9 20 30 29 23 24 43 47 33 49 42 51 49 47 48
19 22 24 26 28 27 26 26 23 19 20 22 24 24 22 18 17 17 19 18 15 16 18 15 9 12 11 6 5 17 25 26 22 27 46 34 34 49 52 51 51 48 51
21 24 26 27 27 26 26 23 22 23 20 16 20 23 20 18 17 17 19 17 13 14 19 17 10 10 11 6 7 17 24 31 22 30 43 35 43 59 50 53 52 53 53
22 25 26 27 26 25 24 22 21 23 24 22 21 19 19 20 18 17 18 18 14 12 15 16 13 9 10 4 5 10 30 29 29 39 45 35 53 57 50 54 51 53 53
23 24 26 26 24 23 21 21 21 22 24 25 22 19 17 19 18 18 19 18 16 14 15 16 13 9 11 3 5 14 24 25 26 42 37 50 60 47 50 54 51 54 53
23 24 25 23 22 20 20 21 22 24 25 23 17 18 18 18 19 20 17 18 16 14 15 15 14 10 11 7 2 13 23 28 30 39 29 55 58 55 46 52 51 51 50
23 23 21 20 20 19 20 22 23 24 21 21 16 15 15 18 20 19 17 15 14 13 15 14 13 12 9 8 1 14 21 30 36 36 44 43 49 62 52 51 52 52 51
22 19 18 19 18 18 21 23 20 18 20 19 16 12 12 16 19 17 15 13 13 12 15 15 12 12 8 7 1 7 19 28 29 26 56 46 52 61 51 52 54 55 53
18 17 17 15 16 19 21 19 17 18 18 16 14 13 13 15 17 15 13 12 12 12 15 15 12 12 10 8 3 2 15 24 37 29 57 53 48 50 56 51 55 53 52
15 14 12 14 17 19 19 18 18 16 16 15 15 14 15 15 16 13 10 10 11 12 14 15 12 12 13 10 6 4 14 20 28 34 41 54 45 60 56 54 56 54 49
12 12 13 14 18 19 16 17 15 14 15 14 15 13 13 14 13 11 9 9 11 11 13 13 11 13 13 10 8 5 9 17 21 36 36 46 44 55 58 53 55 54 53

GFSGL_700_spd_006.txt.gz
Wind_Speed
28 27 27 25 25 28 30 31 31 30 32 33 35 37 38 36 33 33 33 34 34 35 35 35 35 35 37 34 33 33 31 29 31 31 22 27 58 74 43 64 47 55 48
26 27 26 26 26 28 30 31 31 30 32 33 36 37 38 36 33 32 34 34 35 37 36 36 34 34 37 36 32 32 29 23 22 29 17 20 39 59 51 64 41 58 50
26 27 27 26 27 29 30 31 30 30 32 33 36 38 38 35 32 31 34 35 36 36 34 34 34 32 35 36 31 30 25 29 19 23 12 21 41 46 47 63 41 47 48
27 28 27 27 27 29 30 30 29 31 31 33 36 38 36 33 31 32 36 36 34 34 32 32 33 32 35 35 29 27 23 19 13 20 9 24 37 38 53 55 40 52 52
27 28 27 27 28 29 29 29 29 30 31 34 37 37 34 31 31 33 35 35 34 34 31 31 32 30 33 32 29 20 6 11 23 8 7 29 24 48 60 53 40 50 47
28 28 28 28 28 28 29 28 28 29 31 34 37 36 33 31 32 33 34 35 35 35 34 30 30 28 29 27 22 16 13 15 7 17 16 16 21 48 44 53 40 50 43
28 28 28 28 28 28 28 27 27 30 32 35 36 35 33 30 31 32 34 35 36 34 33 30 28 26 28 25 19 19 16 14 11 19 11 18 24 56 46 60 41 51 46
28 28 28 27 27 28 26 26 29 30 33 35 34 32 34 30 31 32 34 35 34 33 32 31 27 23 24 21 19 18 15 18 16 17 13 11 26 37 37 47 50 52 48
26 26 26 27 28 26 25 27 28 31 33 34 32 31 32 31 31 32 34 35 34 33 30 29 24 24 20 15 19 20 19 12 13 14 13 19 19 35 50 54 49 50 52
23 25 26 27 25 25 25 26 28 32 34 33 31 29 30 31 31 32 34 36 35 36 31 25 21 21 19 13 16 17 19 12 19 14 17 13 22 44 51 49 56 55 55
25 26 26 25 25 24 25 26 29 31 32 32 32 27 29 29 30 33 34 35 34 34 31 23 18 18 18 15 14 13 17 20 15 22 19 21 20 40 46 57 59 56 51
25 25 25 24 23 24 25 26 29 30 32 32 31 28 26 26 27 32 32 30 28 30 29 21 18 17 18 15 14 16 25 23 22 21 22 18 21 43 50 55 56 54 46
23 22 22 22 23 25 25 25 28 29 31 32 30 28 24 23 25 28 28 26 24 26 24 21 20 18 16 18 17 16 19 22 21 23 28 21 19 43 58 55 47 45 43
19 21 22 22 24 25 24 25 27 28 30 31 29 26 24 22 23 26 24 23 22 21 20 18 20 18 17 18 17 15 19 21 22 28 25 21 22 49 59 53 48 45 44
19 22 22 23 23 23 23 24 27 28 30 30 26 26 26 21 21 25 23 21 22 23 19 17 16 16 14 16 11 16 18 19 22 24 29 23 30 48 48 55 43 46 47
18 20 20 21 21 22 23 24 27 29 28 27 25 26 24 25 23 24 23 21 19 22 19 19 16 15 13 12 11 14 18 19 27 27 23 23 34 47 50 43 43 46 48
16 19 20 20 21 22 24 27 26 25 26 26 25 24 24 25 24 24 23 20 19 21 19 19 17 14 12 13 13 9 21 27 31 31 27 26 30 31 51 48 45 45 46
17 19 19 20 21 22 25 28 28 25 19 20 24 26 26 27 25 23 23 21 19 19 21 20 18 15 11 11 11 3 24 30 37 30 30 33 41 35 49 49 50 49 47
18 19 19 20 22 24 26 27 26 24 22 20 19 22 29 25 24 22 23 23 22 20 20 19 18 16 11 11 11 4 24 29 29 29 28 37 41 40 48 51 45 50 50
16 19 20 21 22 25 25 24 23 21 22 22 24 23 22 19 19 19 22 26 25 23 22 18 17 16 13 12 11 9 16 25 27 27 27 42 40 36 38 45 50 47 52
17 20 21 21 23 23 22 22 20 20 20 21 20 22 19 16 14 18 25 27 26 23 22 18 16 16 14 11 14 6 10 25 33 32 28 46 41 35 42 44 49 51 51
18 20 20 22 22 20 20 18 18 19 18 16 19 20 17 13 15 21 24 24 19 17 20 17 16 15 15 11 14 5 3 17 27 35 32 43 43 44 41 46 52 51 51
17 19 21 20 19 18 16 17 18 17 16 18 19 17 14 14 16 22 24 21 14 14 17 16 14 12 15 12 13 7 5 19 25 20 40 38 41 42 45 52 46 53 55
17 19 18 17 15 13 15 16 15 16 18 17 16 15 13 15 18 23 23 18 13 13 15 14 12 10 14 14 12 9 4 16 27 24 37 42 38 42 52 51 47 47 50
17 16 14 13 12 13 14 14 13 16 17 15 15 14 14 16 19 22 20 17 13 13 13 11 9 9 14 14 12 9 8 6 19 29 34 39 42 50 48 55 48 49 48
14 13 13 11 11 12 13 12 13 16 16 16 15 15 15 17 20 20 18 15 12 11 11 9 8 8 12 14 12 7 8 8 14 28 27 37 47 48 45 49 54 49 46

GFSGL_700_spd_012.txt.gz
Wind_Speed
29 28 28 29 31 32 32 31 30 30 29 29 30 31 31 32 33 33 33 35 37 37 36 38 39 40 40 41 41 41 40 41 45 42 43 37 37 39 41 39 32 35 43
29 24 25 30 32 32 31 30 30 29 29 30 30 30 31 32 32 33 34 36 37 37 36 38 39 39 38 40 40 39 39 38 42 44 42 36 30 34 35 33 32 33 46
28 21 24 28 31 31 30 29 30 29 29 29 30 30 31 31 32 33 35 37 38 38 37 38 37 37 38 40 39 39 38 37 38 41 39 34 35 33 31 31 29 34 46
25 21 21 24 28 27 28 30 30 29 29 30 30 30 30 31 32 33 36 37 38 38 37 36 36 37 39 40 39 37 36 37 33 38 34 35 32 24 25 23 21 33 44
28 22 22 24 27 28 30 31 30 30 29 31 30 30 31 31 32 34 37 38 38 37 36 34 36 37 39 39 40 39 36 34 31 32 34 35 28 14 13 15 18 30 59
37 28 26 26 28 31 33 31 31 30 30 29 30 30 30 30 32 35 37 39 39 37 36 36 37 39 40 39 38 35 33 30 29 32 33 30 27 17 12 15 19 44 62
44 38 30 29 28 32 36 34 32 30 30 29 30 29 29 30 33 35 36 39 37 35 36 38 40 41 40 38 36 31 29 24 26 31 32 25 21 14 7 13 27 58 41
43 42 35 32 31 33 36 34 33 30 30 30 30 29 29 30 33 34 36 37 34 32 34 37 40 37 33 33 30 24 22 21 24 26 28 24 16 11 9 13 44 45 45
37 39 37 35 35 34 35 33 31 31 31 30 28 29 29 30 33 34 36 36 32 30 30 35 33 29 29 25 22 22 21 19 22 22 25 23 7 9 13 35 52 44 36
30 34 36 37 37 34 34 32 32 31 31 29 27 28 29 29 32 34 35 33 29 29 27 29 24 25 23 20 21 22 22 20 22 16 17 4 6 9 32 38 38 45 36
35 33 36 37 34 33 33 32 32 30 30 27 26 27 27 30 31 33 32 29 29 27 27 28 23 20 20 18 19 21 21 24 20 17 12 1 8 16 25 28 41 33 42
34 33 37 34 34 35 33 32 31 29 28 27 26 24 26 29 31 31 30 27 27 27 24 26 23 19 19 17 17 19 19 23 19 16 8 4 14 14 25 28 39 25 46
32 36 37 34 34 34 32 31 29 28 27 27 24 23 25 28 29 30 27 25 26 25 22 24 22 21 19 18 17 17 19 23 17 15 8 7 12 16 26 26 35 24 50
35 38 35 34 35 33 32 30 29 27 25 24 23 25 24 26 26 25 23 24 25 23 20 21 19 19 18 18 16 15 18 22 16 10 10 11 18 16 21 34 35 27 44
35 33 33 34 32 30 30 28 26 25 22 23 24 25 25 24 24 21 20 23 23 20 17 19 17 17 16 16 16 14 18 19 18 11 11 15 15 19 26 41 34 32 43
31 32 32 30 29 29 27 26 22 22 23 24 24 24 24 23 20 18 20 22 22 18 16 17 17 16 17 14 14 11 15 19 18 12 13 18 18 23 26 32 39 34 39
29 32 32 31 34 31 24 19 20 21 23 23 24 24 24 22 18 17 20 21 19 16 15 17 18 18 18 15 14 10 12 18 15 12 16 19 23 28 30 37 49 37 43
33 30 29 29 21 18 18 19 20 19 19 23 24 24 23 20 19 19 20 18 16 15 15 18 20 23 21 17 13 10 11 14 15 10 19 19 26 29 31 35 44 56 51
20 22 22 18 17 17 19 18 15 15 18 23 23 23 21 19 20 20 18 16 14 13 16 23 26 26 23 18 14 10 11 11 12 12 16 24 30 31 32 38 44 46 51
21 15 13 15 16 17 18 14 12 14 19 19 20 20 20 20 20 18 17 14 12 13 20 25 25 23 20 17 13 10 10 10 9 14 18 29 35 31 29 38 41 41 45
13 13 15 14 14 15 15 12 15 17 15 15 17 18 19 18 18 17 16 13 13 16 21 24 22 15 16 15 12 10 11 10 8 12 21 35 36 35 31 39 33 35 41
10 13 14 13 11 10 11 14 16 14 13 13 15 16 16 17 16 15 14 13 14 17 21 22 18 13 14 13 12 11 12 9 8 10 23 35 36 33 38 34 33 35 47
10 11 10 9 8 9 13 13 12 11 12 14 14 15 15 14 13 14 14 14 14 17 19 20 16 13 13 12 12 12 13 9 8 7 22 27 31 33 41 32 44 41 50
11 10 11 9 9 12 10 11 10 11 13 13 13 14 14 13 13 14 15 14 15 17 18 18 15 14 13 13 13 12 12 9 6 6 17 25 31 37 41 36 40 42 51
9 9 7 9 6 8 10 9 9 11 11 12 12 11 12 13 14 15 14 13 16 17 17 16 14 13 13 14 13 13 12 9 6 6 17 23 29 34 35 38 37 44 46
6 5 6 5 6 8 7 6 7 9 11 10 11 14 13 12 13 14 13 15 16 16 14 14 13 12 14 14 13 13 12 7 6 9 15 22 24 30 43 39 37 42 46

GFSGL_700_spd_015.txt.gz
Wind_Speed
28 29 30 32 35 36 34 34 35 33 31 30 29 29 28 28 29 31 32 31 31 32 33 35 35 37 38 39 39 41 44 45 51 44 43 37 34 35 38 37 40 40 34
32 30 30 34 36 35 34 35 33 31 30 30 29 28 27 28 30 31 31 31 31 32 33 35 36 37 38 38 39 41 43 42 46 48 42 35 32 35 35 40 39 37 32
33 32 33 36 36 33 34 34 32 31 30 29 28 27 28 29 30 31 31 30 31 32 33 35 36 37 38 38 40 42 43 43 43 43 44 34 34 29 34 34 39 39 28
30 33 34 36 35 34 34 32 31 30 29 29 28 28 28 28 30 31 31 30 30 31 33 35 36 37 38 40 42 44 45 44 41 38 38 34 34 29 29 34 30 31 30
26 32 34 36 36 35 34 32 31 31 30 29 29 28 28 29 31 31 30 29 30 31 33 35 35 35 37 41 45 46 43 41 38 35 31 33 29 31 32 26 22 16 18
30 33 39 37 36 36 33 33 32 32 30 29 28 28 28 29 31 30 29 29 29 31 32 34 33 34 37 41 38 35 34 34 33 31 31 32 35 33 33 21 21 20 17
33 35 43 40 38 36 35 35 34 34 30 28 29 29 28 30 30 29 28 28 28 31 32 33 32 32 38 37 32 31 28 27 26 28 28 34 38 33 29 11 16 19 18
41 40 44 45 40 38 36 34 35 36 33 30 30 30 29 30 29 28 28 27 28 29 31 30 31 32 36 32 30 26 22 20 22 20 28 31 33 32 13 9 13 12 30
40 41 45 53 45 40 37 33 33 33 33 31 30 31 30 29 28 27 27 27 27 28 28 28 29 31 31 28 28 26 21 20 17 21 24 28 27 12 11 11 15 37 48
36 37 40 51 49 42 38 34 32 33 32 32 32 30 29 28 28 26 27 27 26 26 23 25 25 29 28 24 26 25 24 23 19 20 21 20 8 3 5 17 39 39 38
33 30 34 43 44 40 39 37 33 33 33 34 30 30 29 27 27 26 26 27 26 23 22 22 22 26 24 20 23 23 23 24 22 21 19 13 6 8 4 25 47 35 34
36 32 33 38 39 40 39 36 36 34 35 33 29 29 29 26 25 24 26 26 25 20 21 21 20 24 22 19 21 21 20 21 21 18 15 9 6 9 23 25 37 30 32
36 44 35 40 40 38 39 39 37 36 34 31 29 29 27 25 23 24 26 25 22 20 21 19 18 22 21 19 21 19 18 19 18 15 7 3 5 18 26 18 18 18 25
38 36 34 37 40 39 39 38 35 34 33 30 28 26 24 22 22 24 25 23 19 19 21 18 17 20 22 19 19 19 18 19 18 14 3 4 9 14 14 19 20 21 27
36 38 41 39 41 41 40 36 34 33 30 27 25 22 22 20 22 24 24 21 18 19 19 16 15 18 20 18 17 18 17 18 18 11 5 10 11 9 13 19 19 27 26
41 36 41 44 42 40 38 38 36 33 29 24 22 20 19 18 22 22 21 19 18 19 17 15 14 16 19 17 16 15 16 15 18 14 6 12 15 15 17 26 19 21 20
36 41 42 41 38 37 35 32 30 29 28 28 17 19 18 17 20 19 19 17 18 16 14 13 14 17 19 19 18 15 14 13 16 14 6 15 20 19 20 27 25 22 29
32 34 35 36 37 36 34 35 36 37 27 15 18 18 16 17 17 16 16 17 15 13 12 11 14 21 26 24 21 16 13 13 12 13 6 17 18 18 25 27 37 30 29
29 36 39 38 37 38 40 36 29 14 12 18 14 14 18 17 15 14 14 15 13 12 11 10 16 23 25 24 18 17 13 12 10 10 7 17 21 21 29 28 31 36 32
30 32 33 34 35 35 27 15 11 15 17 14 16 19 17 14 13 14 12 13 11 11 11 11 18 23 25 21 14 15 15 14 9 9 9 22 19 27 32 28 34 43 36
14 28 33 30 19 10 8 13 16 17 16 18 18 15 14 14 13 11 12 12 12 13 12 13 18 22 23 17 12 15 15 16 10 9 10 15 17 31 29 33 38 37 48
13 19 16 14 11 12 13 13 13 14 15 14 13 13 14 13 10 11 11 13 13 13 14 15 18 22 21 14 13 15 14 17 12 10 8 15 20 32 36 37 36 36 39
9 13 17 13 13 11 11 11 12 11 10 11 11 12 11 10 9 9 12 13 14 16 17 17 17 21 20 14 15 15 14 17 13 12 12 15 19 37 34 31 33 35 45
6 10 13 12 11 12 10 8 7 7 8 10 10 9 9 9 9 11 13 15 15 18 18 18 20 21 19 16 17 15 15 18 14 12 12 15 20 32 35 33 28 42 35
9 11 10 9 9 9 10 11 8 8 8 8 8 7 7 8 11 13 14 15 15 16 18 20 21 20 18 17 17 15 15 18 15 12 11 14 23 28 37 42 38 40 37
12 7 6 7 8 7 5 7 7 7 6 6 7 7 9 11 12 13 12 12 12 14 17 18 18 18 16 15 14 14 16 17 15 12 11 14 21 27 35 39 47 38 36

GFSGL_700_spd_021.txt.gz
Wind_Speed
46 38 38 34 39 46 52 52 58 56 54 50 46 45 42 39 36 33 31 28 28 28 28 28 29 30 32 32 34 36 37 41 45 44 45 46 47 44 41 38 37 35 36
44 41 37 36 33 38 45 47 51 54 53 50 47 44 42 38 35 33 29 28 28 28 28 28 29 30 31 32 34 36 39 41 43 45 44 42 37 33 31 30 28 28 29
35 38 33 33 31 34 37 40 42 49 51 51 48 44 42 37 34 31 28 28 28 28 28 28 28 31 31 32 35 36 39 40 40 43 41 35 30 28 27 24 23 23 28
31 43 41 34 29 31 33 37 38 43 48 50 48 44 39 36 33 30 28 28 27 27 27 27 29 30 31 32 34 36 38 39 39 39 37 33 29 26 28 28 27 29 34
29 36 43 39 34 28 31 33 38 41 46 48 47 42 38 35 32 30 28 26 27 27 26 27 28 29 30 32 35 36 37 38 38 36 35 32 29 30 31 32 35 35 32
28 33 38 44 39 28 25 34 39 41 43 46 46 43 39 34 32 28 26 27 27 26 26 27 28 29 30 31 33 34 34 36 36 34 34 34 33 33 37 37 38 39 38
30 25 33 36 44 33 25 27 39 41 44 46 46 43 38 34 30 27 27 26 26 25 26 26 26 29 30 32 33 31 32 32 33 33 34 33 35 36 37 37 36 32 32
34 25 29 31 35 44 31 22 36 41 45 47 46 42 38 35 29 28 26 26 25 25 25 26 25 27 31 32 32 30 30 31 30 29 31 33 36 38 38 36 34 29 23
32 32 29 28 35 36 41 24 28 41 45 49 47 43 39 35 29 27 25 25 25 24 25 25 25 27 30 31 31 29 27 29 26 26 28 30 35 36 31 24 27 23 24
36 36 33 30 33 37 38 39 24 41 44 48 47 43 37 35 30 28 25 25 24 24 25 25 25 26 28 29 29 29 27 28 24 23 23 28 29 22 18 21 21 18 8
41 38 33 31 34 33 42 45 28 39 42 47 43 40 36 34 31 28 26 25 24 24 24 25 26 25 25 26 28 26 28 26 22 23 24 27 15 19 11 13 13 6 4
43 37 36 31 33 33 39 42 33 38 45 47 44 41 37 36 32 29 26 25 24 23 23 24 25 25 25 25 25 23 25 24 21 21 23 20 12 11 10 11 2 3 16
41 38 39 31 31 34 41 38 40 39 47 46 45 42 37 36 32 29 26 24 23 22 22 23 23 25 24 24 22 19 22 21 20 18 20 15 9 13 8 7 3 4 7
41 39 39 27 28 33 36 30 41 35 45 47 46 42 38 35 30 28 25 24 23 21 22 22 22 23 23 23 19 17 19 20 19 15 18 10 7 7 8 11 6 3 7
36 42 36 24 25 31 34 28 39 36 41 46 43 40 35 32 29 26 25 23 23 21 21 23 21 22 22 21 18 15 17 20 19 14 15 9 1 1 5 9 12 12 9
40 44 30 22 26 31 31 31 38 34 38 42 36 34 31 31 28 27 25 25 23 23 22 23 21 21 21 19 18 15 16 21 20 12 12 11 1 1 5 6 16 15 11
39 43 24 22 28 31 27 31 39 40 39 39 36 33 31 29 28 26 26 26 26 24 20 22 21 20 19 17 17 17 19 22 20 12 10 9 2 4 7 5 12 13 8
37 31 16 21 30 27 29 34 41 44 45 43 39 36 31 27 27 27 29 27 25 21 19 23 19 18 17 16 16 19 21 23 19 12 11 7 6 10 10 7 15 15 11
33 15 14 25 31 32 33 36 38 40 44 40 34 31 31 28 27 25 26 27 21 18 20 20 17 18 16 15 17 20 22 22 16 13 12 8 8 16 15 15 18 14 18
20 2 15 26 31 35 39 41 40 38 35 32 30 28 26 25 23 24 22 17 19 19 18 17 18 16 15 15 19 20 22 20 13 14 13 10 9 17 21 19 19 15 22
6 8 14 27 26 36 41 40 40 37 32 25 25 23 22 24 27 21 16 19 18 17 16 16 17 16 14 16 19 20 19 19 13 16 14 13 10 17 22 24 22 23 22
8 11 17 25 33 36 36 33 28 25 22 23 23 25 26 21 18 18 18 16 15 14 14 15 17 16 15 18 20 21 18 17 14 19 17 16 12 17 23 24 25 28 24
19 15 19 19 20 21 23 23 22 21 22 23 21 20 17 14 17 16 15 13 12 12 13 15 15 16 18 21 23 22 22 19 17 22 19 19 15 19 25 26 30 31 28
18 23 23 21 19 18 17 17 17 18 20 17 15 15 16 15 13 11 11 10 11 12 13 12 15 17 20 22 24 25 28 24 20 24 23 22 19 18 22 25 37 33 32
18 22 21 20 19 19 19 19 17 16 17 16 14 12 9 9 10 10 9 10 12 12 11 14 15 17 19 21 25 28 28 23 21 24 26 24 23 21 22 25 38 38 39
15 18 22 23 19 15 15 15 13 11 9 7 6 6 8 9 9 10 11 11 10 10 13 14 14 16 18 21 23 23 22 21 21 22 25 25 24 23 21 25 35 43 38

GFSGL_700_spd_027.txt.gz
Wind_Speed
35 35 37 41 37 38 36 33 39 40 39 46 48 45 49 52 48 44 44 44 39 35 34 34 33 33 31 31 30 30 31 33 33 30 32 33 35 37 37 38 39 40 40
36 36 32 38 38 35 37 36 37 39 31 43 46 40 48 52 48 44 42 43 40 35 33 32 31 32 31 31 31 30 31 33 34 34 33 34 36 36 38 38 38 40 40
38 39 35 36 36 38 38 36 33 40 48 41 49 40 45 51 43 41 40 42 39 34 32 31 31 31 31 30 29 29 30 32 34 37 37 37 37 37 37 38 41 40 36
38 39 37 32 33 37 39 37 38 39 44 54 44 45 40 43 38 39 39 42 39 34 32 30 30 31 30 29 28 29 30 31 34 37 38 39 38 36 38 42 42 36 33
38 39 34 31 32 36 38 37 36 37 39 47 49 44 32 39 36 36 37 41 39 34 30 29 29 29 29 27 27 28 29 31 34 36 38 39 37 37 39 38 37 34 33
37 37 33 32 33 37 37 37 39 36 41 39 51 38 26 36 35 35 35 41 38 32 28 27 27 28 28 26 26 26 28 31 34 37 37 36 35 38 39 34 34 37 41
38 37 35 36 34 37 33 38 39 40 36 36 43 38 26 32 34 33 37 41 36 30 26 25 27 27 26 24 23 25 28 31 34 36 36 34 37 38 35 35 38 44 36
39 37 36 38 35 35 35 38 38 38 36 41 34 41 33 30 29 31 38 40 34 28 25 25 26 25 23 22 22 25 27 29 31 32 33 34 37 34 36 41 44 37 36
43 39 38 38 36 36 35 38 37 36 36 33 34 40 33 28 27 29 41 39 32 27 25 24 23 22 21 21 21 24 25 27 28 28 28 33 31 33 37 41 36 36 34
44 42 40 38 36 36 37 37 37 33 35 32 30 40 36 28 29 28 40 37 30 27 24 22 21 20 18 19 23 22 24 25 24 22 25 27 28 32 34 30 31 42 42
44 42 41 40 36 36 37 35 33 32 32 28 26 39 37 29 28 29 38 34 29 25 22 20 18 16 16 21 21 22 23 22 20 19 24 23 25 32 29 25 33 38 39
45 41 41 40 36 35 35 35 31 33 26 26 24 40 37 28 26 31 34 31 27 25 21 18 15 14 17 20 20 21 21 18 16 17 23 21 25 25 20 27 28 32 23
44 41 39 39 35 33 32 31 33 28 21 27 25 41 34 31 28 29 32 30 28 25 20 15 14 15 16 18 19 19 18 15 14 16 21 18 23 19 21 26 27 32 26
40 38 37 35 35 29 30 28 30 23 22 27 32 38 34 34 33 34 35 32 28 23 18 14 13 13 16 17 18 18 16 13 12 14 18 14 17 14 20 21 31 32 25
35 33 32 33 32 27 28 27 25 18 22 28 41 42 38 34 32 34 31 27 22 18 15 13 11 13 16 17 17 16 13 11 11 14 15 12 11 10 15 18 22 22 24
29 29 28 30 26 24 27 25 20 16 18 20 45 40 31 23 29 31 28 23 20 18 14 11 8 13 16 18 16 14 10 10 10 13 14 10 7 6 8 13 23 20 24
26 26 25 24 23 25 23 24 16 15 13 22 44 36 31 30 32 28 26 24 20 15 13 11 9 13 18 17 14 11 9 9 10 12 13 9 4 4 10 14 20 28 26
22 21 19 21 26 22 24 15 17 14 21 31 37 34 28 31 34 30 26 23 18 15 14 10 8 15 19 14 11 9 9 8 10 13 13 8 5 9 9 8 17 15 22
12 15 21 24 26 21 12 13 15 20 29 34 35 29 26 34 33 27 23 18 16 17 13 10 11 17 17 12 9 8 8 7 9 13 7 9 8 14 12 8 10 18 18
15 17 19 9 4 18 17 13 19 27 36 33 31 28 36 38 31 25 21 18 18 16 13 14 14 15 15 10 8 8 8 5 7 11 2 10 10 16 16 13 12 16 25
13 7 9 6 14 17 11 13 27 31 31 29 26 32 36 30 25 22 21 19 14 13 12 14 12 13 13 9 7 8 7 5 5 8 3 10 9 19 20 14 16 17 22
11 9 11 9 12 14 12 14 22 24 28 29 33 34 32 29 25 24 19 15 13 13 14 13 12 12 12 9 8 7 6 5 4 5 5 8 11 13 21 21 19 15 18
9 7 16 14 13 12 12 16 17 21 25 31 33 32 30 29 24 17 14 13 13 11 12 12 11 11 10 10 8 6 7 7 6 4 5 2 14 13 20 24 23 20 21
16 7 7 8 8 15 19 22 23 24 28 28 24 22 23 21 19 15 13 10 10 13 13 12 10 9 10 10 8 7 6 8 9 8 6 7 8 18 18 27 30 27 22
9 12 16 14 16 19 24 24 22 20 17 15 17 17 16 13 13 12 12 13 15 14 11 10 10 10 9 8 9 8 6 9 12 13 13 9 12 15 23 22 31 34 30
5 2 1 3 6 12 13 11 12 13 15 15 16 16 14 12 10 10 13 15 13 12 11 11 11 9 8 8 8 9 11 11 12 15 17 16 13 17 23 28 27 36 39

GFSGL_700_spd_030.txt.gz
Wind_Speed
42 37 38 38 34 35 38 41 45 43 38 41 42 40 45 50 47 46 46 41 43 44 45 46 40 35 34 32 32 32 32 32 32 31 31 32 33 35 36 37 38 40 41
43 45 40 39 38 35 36 40 40 43 38 39 41 39 38 46 42 41 40 39 41 44 43 47 42 36 35 32 32 31 32 33 33 30 30 33 35 36 37 38 38 40 42
45 44 42 38 36 34 36 40 42 41 39 37 38 37 37 43 44 43 42 41 43 43 43 45 42 37 34 32 31 31 31 32 32 32 32 33 34 35 37 39 39 40 42
41 41 41 38 38 35 36 40 40 39 39 38 41 41 39 47 56 42 46 37 45 44 43 43 44 38 33 31 31 31 30 31 32 33 33 34 35 34 37 38 39 41 43
40 38 35 36 37 37 37 38 40 39 36 35 39 41 40 38 50 54 44 40 40 39 43 43 44 37 32 31 32 29 29 30 31 33 34 35 34 34 36 38 42 42 33
42 40 38 35 37 39 39 39 40 40 40 40 41 40 44 39 43 64 47 48 37 37 42 43 43 37 33 31 29 29 28 28 30 34 33 33 33 33 37 39 40 35 33
44 44 44 41 39 38 38 37 40 38 38 40 40 41 37 40 36 51 46 46 39 34 40 43 41 35 31 28 27 26 25 27 30 31 31 31 33 34 37 38 32 35 38
47 45 44 42 42 39 38 37 37 37 38 40 41 38 38 40 36 37 45 40 33 29 37 42 39 32 28 26 25 24 24 26 28 29 30 30 32 33 36 34 34 36 29
55 49 44 42 45 41 38 37 36 37 37 39 40 36 36 37 31 32 38 35 30 29 38 42 37 30 27 24 22 21 22 23 25 25 27 29 30 32 31 36 34 32 36
48 49 47 44 46 42 38 38 35 36 37 38 36 34 39 27 35 36 37 33 28 33 40 39 33 28 25 22 19 19 20 21 21 23 25 26 30 27 28 32 32 37 39
37 41 44 46 45 42 39 36 35 35 35 36 36 33 32 28 34 40 32 31 31 36 39 35 30 26 21 18 17 17 18 18 19 21 22 23 25 22 23 22 29 35 35
40 40 44 44 42 39 39 34 34 33 33 32 35 32 21 30 36 38 32 28 37 34 33 30 26 22 19 17 14 14 15 15 17 19 19 20 20 19 16 21 27 30 27
39 38 37 38 36 36 35 33 32 32 30 30 31 24 18 30 36 31 28 35 34 30 30 27 25 20 17 14 13 13 13 14 15 15 16 17 16 17 18 24 28 23 27
36 36 35 32 31 31 30 31 29 29 27 28 22 18 21 30 33 29 33 30 28 31 32 29 24 19 15 12 11 11 12 11 12 12 13 15 13 14 21 24 18 20 19
31 31 29 27 27 26 28 27 27 25 25 21 19 15 28 35 32 33 33 34 33 32 29 25 20 15 12 9 8 9 7 8 9 9 10 13 10 14 14 15 20 20 18
24 24 23 21 20 24 24 23 21 23 21 19 12 18 32 31 28 29 30 27 29 27 25 20 16 12 9 7 6 5 4 6 8 8 9 8 7 10 8 13 17 27 19
21 20 20 19 20 20 20 22 19 18 12 11 11 30 32 31 31 30 27 26 28 26 21 17 14 11 7 4 4 3 3 4 7 8 7 4 3 5 9 14 25 28 25
17 15 15 14 14 16 21 18 17 12 10 6 21 26 31 33 31 29 29 30 30 25 20 16 14 9 4 3 3 2 2 3 6 8 6 3 5 4 11 10 23 24 28
15 14 16 17 19 22 20 17 11 15 12 15 24 29 33 29 29 33 31 28 23 19 17 11 9 4 5 3 2 2 2 2 5 8 4 9 8 8 13 10 19 20 23
15 13 9 9 8 4 7 15 15 15 17 19 26 32 34 35 38 34 30 26 22 20 14 8 4 4 5 3 3 3 3 0 4 7 3 11 11 12 9 10 18 20 20
17 14 14 13 13 14 10 11 15 17 24 26 25 29 29 35 36 32 28 23 19 16 8 6 4 4 4 4 5 6 4 1 2 5 3 11 12 16 12 11 21 24 21
29 18 17 13 13 12 14 15 17 23 26 25 28 35 39 38 36 31 25 21 18 13 10 6 5 6 6 6 7 7 5 1 1 3 5 9 11 16 17 15 17 21 24
21 21 21 17 16 15 15 13 15 20 24 28 34 40 41 34 28 26 23 20 16 10 7 6 7 7 7 7 7 7 5 3 2 2 3 4 14 14 20 19 20 18 15
19 19 15 14 13 12 11 13 17 20 20 28 34 39 36 30 30 26 21 18 11 10 9 9 9 8 8 8 8 6 4 4 3 2 1 4 8 18 20 24 24 19 15
14 17 19 17 16 17 18 16 15 16 20 26 28 29 30 28 23 21 16 12 12 11 9 9 10 10 9 8 6 4 3 3 3 2 2 4 7 12 21 24 27 24 21
12 10 10 12 14 17 16 16 17 19 19 19 19 19 18 19 15 15 16 16 13 10 9 8 8 9 8 6 4 3 4 4 4 4 3 2 5 11 16 24 28 31 28

GFSGL_700_spd_033.txt.gz
Wind_Speed
48 46 44 45 43 43 43 43 45 44 45 47 49 49 44 42 41 42 42 42 49 49 49 46 43 43 43 47 45 40 38 35 34 32 32 32 32 32 34 35 36 37 38
53 44 44 44 45 43 41 40 37 39 42 44 49 47 44 41 40 41 39 38 44 49 49 48 46 40 45 47 47 42 38 36 34 33 34 32 31 33 35 36 38 38 39
46 47 49 46 44 42 41 41 40 40 41 43 47 43 43 42 43 38 36 41 43 46 54 47 50 40 44 46 48 43 39 36 34 34 32 32 32 34 36 37 37 38 40
51 49 49 46 44 42 40 39 41 40 40 40 42 41 41 44 42 42 40 39 42 50 55 49 48 40 42 45 46 42 39 37 36 33 32 32 32 34 36 37 38 39 39
44 44 46 46 44 43 42 39 38 39 39 39 43 43 43 42 40 38 38 42 45 48 46 51 41 43 40 43 46 43 39 38 35 33 32 32 30 33 35 37 38 38 36
43 44 46 47 45 45 45 44 41 38 38 38 40 42 42 41 40 39 38 39 46 46 50 55 50 42 38 43 47 43 40 36 32 33 31 30 31 32 34 36 37 38 38
51 51 51 51 50 47 46 44 42 39 38 38 40 41 42 42 41 37 37 40 45 49 49 50 39 41 37 43 45 42 38 32 32 31 29 30 30 30 33 34 35 37 34
46 47 48 50 52 52 49 44 42 40 39 38 39 42 42 40 39 37 38 40 45 50 46 42 37 41 40 41 43 40 32 31 30 30 28 28 28 28 33 33 32 33 32
47 46 43 41 43 46 46 43 42 40 40 40 40 42 40 38 38 34 38 43 40 48 48 43 43 42 38 39 40 34 31 29 29 27 26 25 26 27 29 32 30 34 31
44 42 41 39 38 38 38 40 42 41 41 40 42 41 38 38 33 34 41 36 35 44 48 53 40 42 37 39 34 32 29 28 27 24 22 22 24 25 26 32 32 35 36
44 43 41 36 37 39 41 40 41 42 41 41 40 39 36 36 34 40 31 28 31 33 41 38 43 38 37 34 32 29 27 25 21 18 19 20 21 22 25 28 31 34 37
42 41 38 36 34 35 36 38 39 40 40 37 38 36 33 31 38 29 23 24 25 31 34 42 41 38 35 32 29 27 23 19 16 16 16 17 18 20 24 25 24 32 38
37 35 32 31 31 33 36 35 34 34 33 33 33 31 29 30 29 18 21 22 23 31 39 41 37 36 31 29 27 23 17 13 12 12 12 13 15 20 21 21 25 27 32
33 31 27 28 26 28 29 29 28 28 27 28 27 27 26 26 13 19 25 24 24 32 43 37 33 29 28 27 22 17 11 9 10 8 9 10 14 13 12 21 22 24 17
30 27 25 22 21 21 21 22 22 22 25 24 23 23 21 14 11 17 25 25 28 45 43 35 32 28 24 20 16 11 9 9 5 5 5 8 6 6 12 16 19 18 7
28 23 20 19 16 14 14 14 17 20 19 22 22 15 14 9 21 24 27 38 45 40 33 30 27 22 20 17 13 10 8 5 3 3 4 5 1 4 9 18 14 19 14
24 20 17 15 14 13 13 15 13 13 18 18 10 10 11 22 26 31 40 44 40 33 28 25 21 20 19 15 11 9 7 5 4 3 4 6 6 9 6 13 15 20 21
20 20 19 17 15 13 13 12 12 12 6 4 7 8 26 24 30 38 43 39 32 28 25 22 21 19 16 12 10 9 8 6 4 3 5 11 10 12 6 13 19 20 18
20 19 18 17 17 17 16 14 10 6 8 5 9 24 26 32 36 40 37 30 29 28 25 22 24 17 14 10 11 10 8 6 6 5 11 14 12 14 11 13 21 19 20
22 17 14 16 13 7 1 4 10 14 9 12 19 32 31 34 40 40 38 30 25 21 21 21 18 14 12 12 12 11 8 7 9 8 14 15 12 14 13 12 18 19 20
24 18 17 17 14 10 10 10 12 15 19 28 32 27 27 37 39 39 36 27 22 22 18 16 12 11 14 14 13 12 9 8 11 10 13 15 15 12 13 16 16 17 22
22 20 20 23 22 20 18 17 19 21 28 31 31 30 33 40 39 34 29 23 23 19 17 12 10 13 15 15 14 12 9 8 10 10 12 13 16 14 14 14 13 17 22
22 19 19 22 21 21 20 20 21 22 26 27 26 31 38 38 34 29 25 24 19 13 14 10 12 13 15 14 13 11 8 7 7 9 9 13 15 17 13 17 18 16 19
22 21 16 17 15 10 15 17 19 19 22 26 29 34 39 38 30 30 25 17 14 11 12 13 13 13 14 14 13 11 8 7 7 7 9 9 14 18 16 17 17 17 15
15 17 19 19 19 17 14 13 13 16 22 30 34 35 34 31 28 25 20 16 12 12 12 14 14 14 14 14 13 11 10 8 6 5 6 8 10 16 20 18 19 18 14
12 10 11 14 15 12 11 11 13 16 20 25 30 31 30 25 18 17 16 14 14 14 13 14 15 15 13 13 12 11 9 7 7 7 5 5 9 11 18 21 23 21 21

GFSGL_700_spd_039.txt.gz
Wind_Speed
53 51 48 46 46 47 47 48 49 51 47 46 45 43 39 37 37 35 34 34 33 32 31 33 35 42 46 50 59 52 62 54 58 48 43 44 43 42 41 39 37 36 36
52 50 49 48 45 44 45 45 43 43 46 48 45 42 40 37 36 36 35 34 34 32 30 32 34 39 45 47 50 56 59 55 58 54 49 46 45 41 43 42 39 37 36
51 50 49 49 48 46 45 44 43 41 44 48 47 43 41 38 36 36 36 35 35 31 30 33 34 37 41 45 46 51 65 60 55 56 56 47 46 46 44 44 40 38 37
52 51 50 48 47 46 46 43 41 42 44 48 46 43 42 40 39 37 35 36 35 34 33 33 33 37 41 42 45 48 60 57 56 58 59 53 48 47 44 44 42 39 37
56 54 51 48 46 44 44 43 42 39 45 48 47 44 41 40 39 39 36 36 36 37 33 35 36 36 42 39 41 47 51 57 53 60 61 57 52 47 44 40 41 40 39
52 52 50 46 45 44 43 43 43 42 40 44 51 46 43 42 40 39 38 36 35 36 33 33 37 38 42 38 40 41 50 50 48 54 52 57 51 47 39 40 42 42 41
51 48 45 44 45 44 44 44 43 40 39 39 39 41 47 46 43 40 38 36 34 32 31 31 37 38 40 42 36 41 40 43 49 48 47 50 48 43 38 42 41 41 39
50 47 45 45 44 43 41 37 37 36 37 36 36 34 38 43 43 41 37 37 35 33 31 33 36 37 37 41 39 39 38 39 56 42 54 51 42 42 44 39 41 40 38
49 46 47 44 41 42 38 34 33 33 34 33 32 33 36 37 40 40 37 36 35 34 34 33 35 36 35 37 37 34 36 39 39 47 45 47 48 44 38 39 38 37 37
49 46 47 44 40 42 38 32 29 29 30 29 29 30 30 32 37 36 35 37 37 36 35 32 35 35 34 33 34 31 32 43 43 40 39 44 41 38 38 35 35 35 39
49 48 47 42 39 37 35 28 28 26 26 27 32 30 30 31 31 34 33 35 36 37 36 34 35 32 36 30 31 31 31 37 40 40 37 38 37 38 35 32 33 36 37
47 46 45 39 34 34 31 27 25 23 24 25 24 24 24 23 27 28 30 33 35 38 37 35 35 32 39 36 31 29 32 35 40 37 38 34 34 32 30 29 31 32 31
43 44 42 33 31 31 28 25 22 19 19 18 19 19 17 20 23 25 28 33 34 35 39 48 47 27 26 28 28 32 35 39 36 36 32 30 29 29 26 24 23 25 23
40 41 39 34 32 29 27 24 20 16 15 14 13 12 14 17 20 23 25 28 41 34 23 24 26 29 25 28 29 31 37 35 32 29 27 28 27 22 17 17 16 17 23
38 39 37 32 29 26 24 21 17 11 9 7 8 12 16 18 17 24 28 18 13 8 16 27 33 32 34 27 36 40 35 28 26 25 26 23 17 15 15 12 14 16 11
38 37 33 31 29 25 20 16 14 11 9 11 12 14 15 20 14 10 10 3 10 23 32 35 31 27 27 36 39 34 29 26 24 22 19 15 15 14 11 12 9 5 3
35 34 34 29 24 25 20 12 6 10 11 11 10 10 8 8 11 11 23 29 31 35 37 36 34 36 37 35 29 25 23 21 20 18 15 15 14 11 7 8 9 10 8
32 31 29 26 24 24 17 7 6 8 7 8 6 7 13 11 7 10 19 29 28 33 37 39 37 34 29 24 23 21 19 18 18 17 17 17 13 9 10 13 16 14 12
30 30 26 21 20 23 17 11 11 11 17 23 21 16 9 9 17 26 30 29 34 38 37 34 28 25 23 23 21 19 18 18 19 21 21 16 12 14 12 19 21 20 18
26 27 25 22 18 16 15 14 13 15 19 15 14 15 18 26 31 36 39 39 36 31 27 25 25 24 24 23 19 17 17 19 23 25 18 13 19 16 17 19 25 25 24
25 25 26 24 23 19 15 13 16 19 21 18 18 23 25 28 32 35 35 29 28 26 23 22 20 28 22 20 17 17 19 25 30 20 17 19 19 21 16 18 24 23 20
23 22 27 26 25 23 20 20 18 22 17 18 23 26 27 28 29 27 25 24 24 23 19 21 27 23 22 20 19 18 22 32 28 22 15 16 18 25 19 23 24 27 24
20 21 23 25 23 19 19 16 17 13 13 12 15 21 25 26 28 23 17 14 20 24 27 29 22 19 19 19 20 19 21 30 29 24 16 17 21 29 29 32 26 24 26
17 18 19 20 21 18 14 14 11 11 10 10 11 15 18 20 21 17 13 14 21 26 27 19 19 19 19 18 18 19 19 22 27 29 21 21 25 30 26 24 30 29 30
12 15 16 16 17 17 15 11 9 9 9 9 11 12 13 14 16 12 12 16 23 25 23 18 19 19 18 17 16 17 18 19 21 25 23 20 24 27 23 26 31 34 34
10 11 13 14 15 15 13 9 7 7 7 9 11 11 10 10 11 10 14 21 24 22 19 16 18 18 17 16 15 16 17 18 19 21 22 21 22 24 25 23 19 27 34

GFSGL_700_spd_042.txt.gz
Wind_Speed
55 54 52 49 48 47 47 45 45 46 46 48 49 46 47 47 47 44 40 36 38 39 38 39 42 42 40 40 42 44 46 55 62 60 60 57 48 44 45 44 41 38 38
54 52 50 48 49 49 50 50 47 45 44 44 44 42 40 39 39 41 39 37 36 38 37 37 38 40 40 40 40 43 43 45 52 68 56 60 58 46 44 47 45 41 40
53 50 48 48 50 50 50 49 48 46 45 42 40 38 39 39 38 39 37 39 37 35 37 38 36 37 38 38 39 42 44 44 46 52 60 57 64 55 50 48 50 45 43
50 48 48 49 50 51 49 45 43 44 46 43 37 37 40 43 42 39 39 41 40 37 35 36 34 35 37 39 40 43 46 43 45 47 49 55 60 63 50 50 51 49 44
48 48 48 49 51 50 48 46 43 43 44 43 41 39 39 43 51 44 43 36 37 34 32 33 35 34 37 38 40 42 44 46 42 45 53 51 60 59 53 52 46 48 45
47 48 50 51 52 48 45 45 45 44 44 43 43 39 39 40 40 46 45 32 31 32 33 33 32 35 34 36 40 41 42 43 43 41 47 53 47 59 59 50 47 46 48
48 49 51 52 52 48 47 44 39 40 40 39 37 35 36 38 40 41 45 41 39 33 32 31 30 30 34 36 38 41 40 42 42 39 40 45 45 54 54 44 48 46 47
48 51 52 51 48 49 45 41 38 37 39 36 33 32 33 34 36 36 38 43 42 39 35 35 32 29 33 33 35 39 39 39 40 42 40 43 37 50 50 47 47 46 47
50 51 50 46 47 48 44 40 38 35 40 33 28 28 30 31 31 31 34 39 43 42 40 36 32 31 32 29 34 38 39 37 41 38 36 30 42 53 46 48 49 51 46
51 50 46 42 46 46 39 36 35 36 33 28 29 25 26 27 29 26 29 36 39 40 37 36 35 33 30 29 32 34 38 37 36 34 34 35 40 42 46 53 44 43 43
48 44 44 43 44 42 37 36 35 31 28 29 25 23 24 29 28 27 27 31 35 35 36 35 33 31 29 29 29 32 32 29 32 33 31 39 38 47 46 42 40 42 40
42 43 42 42 42 37 35 34 32 28 24 22 21 20 21 23 24 25 27 29 30 33 33 33 33 31 29 28 28 28 24 26 31 29 32 38 44 42 40 37 40 38 36
38 42 41 40 38 34 34 31 28 25 22 20 19 18 17 19 21 21 22 24 27 31 33 33 32 32 28 27 27 27 29 32 29 28 33 36 43 40 34 34 33 32 32
36 43 40 40 38 32 30 28 25 24 19 16 14 13 12 12 14 17 20 24 27 29 31 33 30 30 34 38 34 31 31 31 30 32 33 40 34 30 29 28 27 25 26
37 40 37 37 33 30 30 26 21 17 17 14 11 12 12 12 15 19 21 22 25 29 39 38 34 30 25 24 26 31 31 30 28 31 38 33 28 25 24 22 22 24 22
39 35 35 35 29 29 29 19 14 17 15 15 13 13 14 17 15 18 22 25 23 19 3 12 24 27 29 25 28 30 28 28 33 36 28 24 22 21 21 21 20 19 21
35 32 32 29 24 28 25 13 10 13 17 13 10 10 13 16 7 7 6 7 14 20 17 22 28 24 23 26 25 25 27 32 34 26 20 20 21 20 20 20 19 16 12
28 29 28 25 22 23 20 15 15 14 14 16 15 12 10 10 12 15 14 21 27 25 26 25 25 27 31 31 32 32 32 24 18 19 20 20 19 21 20 19 16 14 11
26 28 25 24 19 16 14 14 13 13 16 14 13 13 9 7 12 15 19 21 24 26 28 29 27 27 28 27 24 21 19 20 20 20 19 22 21 23 18 16 17 15 13
23 25 23 23 19 15 12 11 9 10 13 12 9 9 9 10 15 20 20 23 24 26 27 26 26 24 23 22 21 23 22 21 20 24 21 20 22 17 16 16 21 22 22
22 23 23 25 19 18 15 13 11 12 12 8 9 11 12 12 20 24 23 23 21 21 21 19 20 21 21 23 22 19 20 26 21 15 15 20 24 18 19 22 26 25 21
19 20 21 23 20 17 15 13 11 11 8 6 8 10 11 15 18 17 17 18 18 17 14 26 24 22 17 16 19 23 30 17 15 15 25 23 21 22 23 25 24 21 19
16 16 16 16 19 16 14 13 13 9 7 5 4 8 15 17 13 9 11 12 13 16 27 26 21 16 16 16 20 32 23 17 13 16 19 23 23 18 22 25 25 23 25
14 14 14 13 15 16 15 12 13 11 7 7 7 9 10 12 15 13 13 15 16 22 30 21 19 17 17 16 19 29 21 18 15 16 24 27 23 24 24 25 27 28 25
10 12 13 12 13 14 13 11 11 13 11 10 11 11 11 12 13 14 12 18 23 28 20 19 17 17 17 17 19 26 26 19 17 18 25 28 26 28 25 28 29 29 31
8 9 9 11 12 12 12 10 8 8 9 10 10 10 13 13 11 12 15 21 23 19 16 17 18 18 16 16 19 19 21 21 20 16 22 24 26 30 27 30 33 32 35

GFSGL_700_spd_045.txt.gz
Wind_Speed
52 54 55 54 52 50 49 48 48 49 49 49 49 50 49 46 44 41 34 37 38 38 36 39 39 39 39 39 37 34 36 41 43 53 49 36 42 53 54 48 42 37 38
54 55 55 53 50 48 47 47 46 47 47 48 47 47 42 41 45 39 33 37 38 35 36 35 37 41 37 35 37 38 35 35 41 42 45 46 52 32 59 52 42 41 39
54 55 54 51 48 48 48 49 50 50 49 49 47 47 46 45 46 39 36 37 40 39 35 37 35 36 33 34 33 34 34 36 38 39 41 44 41 53 56 53 50 43 41
54 54 52 49 48 48 49 50 52 52 50 49 47 47 45 45 42 41 40 41 40 40 34 36 39 38 33 38 37 35 33 33 34 36 38 38 40 44 53 61 58 51 45
54 53 50 48 48 50 52 52 49 49 51 51 49 45 44 43 42 44 43 45 45 39 40 40 37 39 36 40 36 37 36 35 35 35 37 35 39 40 50 56 58 53 47
53 51 50 50 51 51 51 48 47 49 50 45 41 41 39 41 41 40 43 42 44 46 49 46 37 34 37 41 39 39 37 36 34 38 42 36 34 37 38 45 47 45 49
52 50 48 50 51 49 47 45 46 48 44 42 37 41 39 38 33 32 38 41 44 42 41 43 29 34 32 31 36 38 37 39 40 41 39 34 32 33 34 44 38 47 44
50 48 48 49 48 45 45 46 47 46 41 37 38 37 41 34 28 31 34 36 37 37 39 34 33 34 32 34 33 36 38 37 38 40 43 35 31 29 32 34 38 31 43
48 47 47 45 46 45 45 46 45 42 40 38 36 35 29 25 25 28 30 33 34 36 33 37 38 35 36 35 33 31 31 33 37 38 37 33 31 29 31 37 38 42 46
47 47 45 40 45 43 43 44 42 41 38 36 32 29 25 24 24 24 27 29 31 30 31 32 33 37 38 34 28 26 27 28 32 32 33 31 32 28 30 37 34 35 42
47 44 42 39 44 42 42 41 39 38 35 33 28 24 22 20 23 24 24 27 29 28 29 32 32 37 35 30 27 28 25 23 24 27 30 30 31 29 33 32 41 40 46
43 41 37 41 40 42 40 36 33 32 30 28 25 19 17 17 18 22 26 29 29 29 30 34 34 31 29 26 27 26 24 22 23 25 28 30 31 30 37 30 32 38 44
42 37 40 37 39 37 33 33 35 29 30 26 25 19 16 15 16 17 19 22 27 32 30 28 28 28 28 28 26 26 24 24 25 27 28 29 32 31 29 32 29 39 42
37 37 36 39 38 31 29 34 32 28 25 25 23 21 20 17 15 15 16 18 21 22 23 24 26 27 28 28 26 24 25 25 27 26 26 26 24 27 32 29 37 44 38
36 36 37 38 36 30 30 32 26 24 24 23 21 20 19 17 17 18 19 19 20 20 21 22 25 27 28 28 26 26 29 29 33 31 27 28 28 23 26 30 36 34 24
35 35 37 35 32 27 25 23 24 27 25 21 16 14 16 23 27 14 21 26 25 20 19 22 29 36 43 41 42 37 37 36 34 30 29 26 26 26 30 33 25 18 21
34 33 33 31 26 22 21 23 22 23 24 23 19 15 14 19 23 18 1 10 13 23 26 26 20 7 13 20 27 30 25 25 25 20 23 27 29 32 28 20 19 21 19
28 29 29 26 25 20 19 15 18 26 26 22 21 17 17 23 22 23 20 18 17 16 11 9 12 13 14 16 15 19 21 23 24 29 31 29 27 20 18 20 20 25 23
25 28 27 24 22 19 16 11 21 24 21 21 22 19 17 17 17 16 18 18 18 17 15 15 14 16 18 20 22 21 22 24 21 25 27 24 20 21 21 23 22 16 18
21 23 23 22 21 19 16 17 23 24 22 19 16 14 10 9 8 10 13 16 18 19 18 18 17 16 15 16 16 18 21 22 20 20 21 22 26 20 24 18 18 21 19
19 19 20 20 19 18 20 19 23 20 17 16 15 14 12 9 10 10 11 13 12 12 15 18 18 16 18 23 21 18 18 16 15 17 23 19 20 25 20 17 21 19 19
18 18 16 15 18 19 20 21 20 19 20 18 16 15 16 18 15 15 15 14 9 11 15 15 16 16 17 19 19 14 11 15 14 14 18 26 26 24 20 21 21 21 22
15 15 13 11 13 16 17 19 17 17 19 17 13 18 16 14 13 11 10 9 10 21 23 19 14 11 10 11 15 18 7 10 18 24 29 25 23 19 20 22 21 19 22
13 14 12 10 11 13 15 17 19 17 17 16 15 14 15 14 12 12 10 12 20 20 16 14 14 12 10 16 23 10 13 15 19 26 22 20 20 21 22 22 22 25 22
9 10 10 9 9 10 11 12 14 15 15 15 16 15 14 13 13 13 14 19 16 15 14 13 15 13 14 23 14 14 16 19 24 27 25 19 16 21 21 24 27 27 26
8 8 8 8 6 8 10 11 12 12 13 15 16 15 14 14 16 17 18 13 14 14 14 13 14 15 15 20 15 15 15 21 24 24 21 21 18 22 24 27 32 31 28

GFSGL_700_spd_048.txt.gz
Wind_Speed
48 50 52 53 54 55 55 54 53 52 51 50 49 49 49 49 49 51 51 45 44 42 38 36 35 32 36 37 36 34 32 34 40 37 38 42 38 44 41 28 36 40 35
51 52 53 55 55 55 55 53 52 52 51 53 52 51 50 48 46 47 48 49 47 42 37 38 37 34 35 41 35 43 41 34 34 37 31 37 38 42 39 34 32 37 38
52 53 54 55 55 54 53 51 52 52 52 53 53 51 47 45 45 45 46 50 47 40 41 39 41 38 32 40 41 39 42 38 38 37 31 32 38 39 42 36 38 32 38
52 54 54 54 54 53 52 51 52 52 52 50 46 46 48 48 46 42 43 47 51 49 44 48 47 40 44 36 41 40 41 37 34 42 34 34 34 37 37 49 45 40 32
54 54 53 52 51 51 51 51 49 47 46 45 46 46 45 43 42 37 35 41 43 43 43 45 40 45 50 30 44 36 43 35 31 33 36 39 35 33 36 34 41 45 46
53 53 53 52 51 50 48 44 45 44 44 44 45 44 42 41 37 35 34 33 35 37 43 38 47 42 42 39 38 45 52 48 44 38 34 33 33 30 32 33 34 38 40
52 51 51 49 49 47 43 42 44 43 43 44 42 42 41 39 37 35 32 30 30 34 37 40 42 45 46 47 36 28 39 35 37 35 35 30 31 28 28 30 35 31 35
50 50 48 48 46 43 39 44 44 43 43 43 41 41 40 38 33 30 28 28 29 30 35 34 37 37 38 46 45 28 41 39 37 36 36 36 34 24 25 28 30 29 23
48 47 47 43 41 40 44 44 43 42 40 38 39 38 37 32 27 22 21 25 28 29 29 33 30 32 28 19 21 27 29 30 31 34 31 31 31 27 25 29 30 30 32
47 47 43 40 40 44 42 43 41 38 37 38 35 33 34 28 21 20 19 22 24 24 25 27 27 27 27 26 34 35 33 29 29 26 27 29 28 26 26 29 31 30 27
46 43 39 38 41 41 42 39 36 37 38 36 32 28 27 24 20 17 17 20 22 24 26 24 22 21 25 34 34 33 27 25 26 24 27 29 28 28 27 31 28 33 28
44 39 37 38 38 40 38 35 35 40 39 34 31 27 24 21 19 16 16 21 23 24 25 23 21 21 21 23 27 26 26 26 25 24 26 27 28 29 27 30 27 30 31
40 35 37 36 37 37 35 33 33 36 36 32 29 27 24 22 20 17 15 17 23 29 27 25 24 25 25 27 25 26 26 26 24 24 27 27 28 27 27 31 32 33 23
35 36 36 37 36 34 29 27 32 33 35 36 29 23 21 19 18 17 17 16 16 21 25 27 27 25 24 24 25 27 27 25 24 24 23 23 22 24 25 29 24 31 26
33 34 35 35 33 29 25 23 31 34 34 34 30 26 25 24 21 28 23 22 16 15 16 18 20 22 24 25 25 24 24 25 24 19 20 22 23 20 21 24 26 27 31
31 32 34 33 27 23 23 17 27 28 32 32 31 26 29 30 29 19 8 20 20 14 13 14 14 17 19 20 22 24 27 27 25 23 23 24 24 22 26 21 24 25 29
29 30 31 26 24 24 21 23 30 30 28 28 27 28 31 33 30 26 12 11 22 17 10 10 12 16 23 26 29 27 24 26 26 29 27 26 30 27 24 23 22 22 21
26 26 27 25 25 24 22 26 30 29 29 28 27 24 26 30 31 28 26 17 18 11 15 16 17 16 13 10 22 35 38 37 37 35 29 26 27 25 23 23 21 27 25
23 24 24 23 21 23 25 28 28 27 26 25 25 22 20 20 22 22 18 18 16 10 6 5 5 3 2 6 9 13 15 16 17 19 22 23 22 19 20 26 29 28 24
20 20 20 20 21 24 25 25 26 26 23 25 26 27 26 22 15 15 14 12 11 10 7 6 5 5 7 8 10 11 16 19 18 20 19 22 25 27 29 31 27 27 20
18 18 17 17 19 20 22 22 23 24 22 23 22 20 20 22 22 20 17 10 6 8 10 11 11 10 11 11 11 12 15 18 21 21 24 26 27 25 20 25 29 23 21
17 18 17 17 15 17 20 21 21 21 21 22 19 16 17 16 16 16 16 13 10 9 7 6 5 7 8 11 12 11 8 11 16 22 25 25 19 26 29 24 22 20 19
14 15 15 14 13 15 16 18 19 20 21 21 20 19 18 18 20 19 22 25 24 21 19 17 17 17 18 14 11 5 7 16 18 17 15 16 29 23 22 20 20 19 22
12 13 14 13 13 14 15 16 16 18 19 19 18 17 16 16 17 16 18 18 19 18 19 17 12 10 13 13 10 11 12 16 25 27 32 32 24 22 22 21 22 22 22
11 10 11 11 11 13 14 12 14 16 18 19 17 16 14 15 14 14 18 16 18 18 19 19 15 14 15 14 13 17 24 27 29 26 28 21 16 23 22 20 21 23 21
11 8 9 9 10 11 11 11 13 15 17 18 17 15 13 14 14 14 15 16 18 20 21 20 17 12 11 15 19 24 28 27 27 22 21 21 23 23 22 25 31 31 29

GFSGL_700_spd_051.txt.gz
Wind_Speed
46 47 49 51 52 52 54 55 56 56 55 55 53 52 53 54 53 53 52 53 52 52 48 47 43 38 40 41 42 39 39 39 39 37 35 31 33 46 49 50 59 45 38
47 49 51 53 53 54 55 55 56 56 53 53 53 54 53 53 52 52 49 48 47 48 50 47 43 40 36 34 34 35 40 39 37 33 26 26 29 36 47 59 65 48 41
48 50 52 53 55 55 55 55 54 54 53 52 50 48 47 47 46 45 45 45 46 47 47 46 47 45 38 37 36 33 41 40 39 30 34 29 27 30 35 36 34 50 53
50 52 54 55 55 56 56 54 53 53 52 48 45 44 42 43 44 44 42 39 38 38 40 43 43 44 40 40 41 37 39 36 36 34 34 34 33 29 30 32 37 34 42
50 53 53 53 54 55 55 54 54 50 45 43 44 42 42 42 40 38 37 35 33 34 32 32 40 43 43 46 35 40 36 39 42 37 31 34 39 35 30 29 39 34 33
52 53 52 53 54 53 53 51 48 42 43 42 41 42 41 40 38 38 33 34 34 34 35 33 34 36 40 37 47 45 42 41 36 38 32 37 36 38 33 27 36 41 45
52 51 51 52 52 51 50 44 43 42 42 42 40 38 38 37 35 33 32 31 29 30 31 30 28 26 34 38 42 34 38 27 34 37 35 44 30 32 32 31 35 33 33
49 50 50 50 50 49 43 42 40 42 42 40 37 36 37 36 32 30 28 26 28 29 31 31 28 28 29 35 36 41 42 34 34 34 28 31 33 32 33 31 32 35 33
48 49 49 48 47 43 42 41 41 40 38 38 40 40 37 32 31 28 24 25 24 24 25 25 24 27 25 25 30 43 39 36 32 26 23 31 36 32 28 26 31 32 33
47 48 47 44 41 41 41 40 38 35 34 35 37 36 31 28 26 26 21 21 22 21 21 22 22 21 24 23 29 33 27 39 32 23 25 28 30 31 31 31 28 31 28
46 46 44 37 38 39 38 36 32 30 31 31 35 33 29 26 23 22 19 18 18 19 19 19 17 19 20 21 23 22 27 22 25 23 24 26 28 28 28 29 33 30 28
45 43 36 34 36 38 34 27 24 26 33 32 33 36 28 23 24 21 20 15 16 19 17 18 18 18 19 19 24 21 19 27 30 27 24 25 28 29 30 31 33 33 29
42 36 33 33 36 32 29 27 21 30 33 36 41 36 31 29 25 19 18 16 15 18 21 19 18 18 20 19 21 26 26 27 27 26 24 24 25 27 28 32 29 30 31
39 32 31 34 31 27 24 21 26 30 31 34 36 38 34 32 28 23 18 14 19 15 18 22 19 20 22 22 21 22 27 26 26 24 21 20 22 24 29 31 30 33 33
34 29 29 31 28 25 20 21 28 26 27 27 30 35 39 39 36 28 19 11 19 14 12 15 19 22 20 23 24 24 25 26 25 23 21 20 20 24 28 30 32 34 35
30 27 28 29 26 23 24 24 22 26 28 28 27 28 35 37 33 24 11 4 20 10 8 9 11 14 18 22 24 25 25 25 25 25 22 19 21 24 21 23 26 31 30
26 25 27 25 22 24 23 25 29 27 27 31 30 27 29 31 28 25 20 16 11 9 8 9 10 11 14 17 20 23 25 27 26 24 22 21 20 21 23 24 23 25 24
23 23 24 22 23 22 23 24 26 27 30 31 27 31 27 26 26 20 16 10 9 5 3 4 7 10 12 17 21 25 28 27 27 27 24 22 18 18 23 22 26 20 24
22 22 21 21 22 21 20 21 23 26 26 28 26 28 28 25 21 20 14 11 7 3 1 3 6 2 6 11 17 27 31 28 27 25 23 23 26 23 23 23 20 18 22
20 20 20 20 19 18 19 21 23 24 25 25 25 28 27 23 19 16 11 9 6 4 4 4 3 2 3 4 6 8 12 24 31 29 22 18 20 23 22 23 22 23 24
19 18 18 18 17 17 19 20 22 24 23 24 24 23 24 22 21 19 14 11 8 5 3 1 1 1 1 2 5 9 16 18 17 22 21 25 25 21 25 25 27 26 26
19 17 17 16 17 17 19 19 20 22 21 22 21 21 21 18 18 22 21 21 21 10 5 6 7 5 6 7 4 4 11 16 19 19 19 20 20 22 24 23 22 27 21
17 14 15 15 16 17 17 17 20 21 20 19 19 19 19 16 15 20 19 18 17 19 16 13 12 11 7 4 7 2 6 8 12 17 19 17 18 24 28 28 26 22 22
16 12 13 14 15 17 16 17 19 19 19 19 18 18 18 15 18 19 19 20 19 17 13 10 9 11 6 10 9 9 14 16 19 21 27 31 28 27 24 22 21 19 23
15 11 11 12 13 14 15 16 17 19 19 19 17 17 18 16 17 18 19 19 20 20 16 13 15 12 14 17 21 25 26 27 35 33 25 24 23 21 23 20 20 23 21
15 11 9 9 11 12 12 14 16 18 18 18 17 17 18 17 18 18 18 20 22 22 20 18 18 20 17 22 26 30 32 31 29 23 17 24 23 22 20 20 22 21 21

GFSGL_700_spd_054.txt.gz
Wind_Speed
48 51 52 52 52 54 56 57 59 59 59 60 59 58 55 53 52 51 49 47 47 46 46 46 48 51 53 52 49 47 48 49 50 47 40 35 37 34 35 56 50 50 52
52 53 52 52 53 55 57 58 58 58 58 57 55 54 53 51 47 45 45 44 44 43 43 44 44 45 47 45 44 41 39 43 46 45 39 33 31 36 31 38 47 53 56
54 55 54 54 55 57 59 59 59 59 58 56 54 52 48 43 43 43 43 42 43 43 42 42 43 43 45 44 44 45 37 37 41 43 41 34 29 31 34 34 41 47 47
55 56 54 54 57 58 58 58 59 57 55 52 48 46 45 44 42 41 39 39 42 41 37 37 39 38 35 36 41 40 39 39 38 37 38 38 38 26 29 31 32 42 48
53 52 52 54 56 56 56 56 55 53 48 46 45 43 43 42 40 38 36 37 40 37 34 34 35 31 28 27 37 42 42 39 38 39 36 37 27 32 33 27 26 28 33
50 50 52 53 54 55 55 53 50 46 45 43 44 42 40 37 36 35 34 36 35 33 38 37 36 30 31 29 32 39 33 44 43 37 40 38 29 28 32 34 27 28 31
48 50 52 52 53 53 52 49 45 44 43 42 38 36 37 36 37 38 36 32 32 38 33 32 31 31 27 28 29 38 46 31 31 42 35 34 29 31 32 30 31 30 28
49 51 51 51 52 52 48 44 42 42 39 35 31 31 33 34 35 34 31 30 33 34 31 31 31 30 26 26 24 28 38 31 32 37 37 31 33 29 29 28 31 31 29
49 49 49 50 51 48 43 42 40 39 30 26 28 31 33 36 34 29 27 30 30 31 27 26 25 25 23 22 21 24 27 29 40 20 25 36 33 29 31 28 27 28 31
47 47 47 48 46 42 40 41 38 30 24 28 30 31 35 32 31 30 25 28 29 26 22 20 22 20 16 16 21 18 26 26 25 21 19 26 23 34 33 27 24 26 29
45 45 45 43 39 39 39 35 31 26 29 32 33 32 32 33 32 29 27 24 27 23 18 16 16 16 15 16 19 20 19 21 24 24 26 18 27 31 32 28 27 27 30
43 43 42 35 35 35 33 29 27 26 31 32 31 33 37 37 38 30 22 22 21 19 15 13 14 15 14 15 16 16 16 22 28 29 28 29 26 24 26 31 33 33 31
42 41 36 31 32 31 29 26 25 28 27 28 32 36 40 38 42 34 23 18 19 17 15 12 15 15 14 14 17 17 20 23 28 29 29 24 23 25 27 29 31 34 37
40 39 32 29 29 26 23 25 27 26 27 32 35 36 38 38 39 38 27 12 15 15 13 12 16 15 15 15 15 17 15 21 25 28 27 23 23 26 27 29 30 32 34
39 35 28 26 25 23 23 24 25 25 26 30 32 33 35 35 37 36 20 2 8 8 7 8 18 19 18 18 18 20 23 22 20 22 23 21 21 22 24 27 31 34 34
37 32 25 24 23 25 26 22 22 23 25 27 25 29 32 30 29 29 17 7 5 3 1 4 11 17 21 20 21 22 23 26 26 23 21 21 20 21 22 25 30 34 33
34 28 24 24 23 26 25 24 24 24 26 26 25 27 27 28 26 21 14 11 7 6 5 6 7 10 17 21 22 22 23 23 23 24 23 21 20 20 24 27 30 32 33
30 25 23 23 23 22 22 23 25 27 28 26 25 24 24 24 22 19 14 12 7 5 4 2 2 5 8 12 18 22 23 24 24 23 21 20 19 22 22 24 25 25 25
28 23 21 21 20 20 22 23 24 25 25 27 26 24 24 22 17 15 13 9 6 5 5 6 7 8 12 15 17 19 21 23 23 24 22 20 21 22 22 22 21 21 25
26 22 20 20 20 20 22 23 23 24 25 25 25 25 23 21 22 16 11 8 6 5 5 5 5 4 6 12 18 22 25 24 24 24 23 22 25 23 19 19 22 23 23
26 21 18 19 19 21 21 21 22 23 23 23 23 23 21 19 25 19 19 13 4 3 3 3 3 3 2 4 10 14 20 27 29 29 25 24 20 22 22 21 23 23 18
25 20 17 18 18 20 19 20 21 22 22 22 22 22 20 20 23 20 20 20 11 3 1 2 3 4 3 3 3 9 15 17 19 23 25 25 19 20 19 21 20 20 23
23 18 15 16 16 17 17 19 21 22 22 21 22 22 21 23 21 20 19 17 15 11 9 6 5 2 3 7 6 11 15 16 19 20 21 20 23 20 19 20 21 20 20
21 17 13 14 14 14 15 18 21 23 23 21 21 23 23 22 21 20 18 17 14 12 10 6 3 6 10 5 7 14 13 17 23 22 21 21 21 21 22 21 23 25 25
20 17 12 11 12 12 14 16 19 22 22 21 23 21 22 21 21 19 18 17 13 12 12 11 13 18 21 18 16 21 22 25 27 27 28 28 28 28 29 27 26 23 22
20 16 13 10 10 11 12 15 18 20 20 19 22 20 19 20 20 19 19 18 15 16 13 16 19 20 24 24 30 32 32 30 29 29 26 26 26 25 23 20 21 21 22

GFSGL_700_spd_057.txt.gz
Wind_Speed
43 45 49 55 57 59 61 61 60 60 60 61 61 62 61 60 57 55 53 51 50 48 45 43 42 41 43 44 45 46 48 50 54 56 52 50 42 42 42 44 49 58 53
45 49 54 57 59 60 59 58 58 59 60 61 61 61 59 56 52 49 46 45 44 45 44 43 41 40 41 42 42 45 44 44 47 52 50 50 45 38 41 42 43 48 56
49 54 57 57 56 56 56 57 58 59 59 59 59 56 52 49 47 45 43 43 43 43 42 40 39 40 41 40 41 41 40 42 43 44 44 41 37 38 38 40 41 40 49
52 52 51 53 53 53 55 57 58 58 58 57 53 50 47 46 45 42 41 41 41 42 39 38 37 38 40 39 37 36 35 37 43 45 44 36 31 36 38 36 38 39 38
48 49 48 48 50 54 56 56 56 56 54 49 47 44 44 41 37 37 38 38 39 39 36 35 35 34 35 34 32 29 27 32 35 43 33 34 32 35 41 32 35 36 31
46 46 47 50 53 54 55 55 54 51 46 43 42 41 37 33 32 31 35 38 41 40 38 35 34 30 37 33 33 32 27 31 33 37 39 38 34 31 35 33 32 32 33
44 46 50 52 53 53 53 52 49 45 43 42 37 31 31 30 31 33 36 39 41 39 35 35 36 35 33 32 30 32 31 33 39 34 41 36 36 34 32 41 34 28 26
45 48 49 50 51 51 50 47 43 43 40 36 30 29 34 33 34 35 35 35 37 37 33 35 34 33 30 29 27 29 29 32 36 32 33 35 30 27 29 33 25 28 27
46 47 47 48 49 49 46 42 41 41 37 34 28 35 37 36 33 33 32 33 34 33 30 27 30 32 24 22 23 26 24 20 24 32 20 40 36 29 30 25 27 31 33
46 46 45 46 47 46 39 39 39 37 33 30 34 35 34 36 36 34 34 34 33 30 27 24 26 24 17 15 18 19 20 17 16 25 19 34 37 32 30 25 28 28 29
45 44 43 43 44 38 37 36 36 33 32 33 32 31 34 35 38 36 36 28 28 28 24 21 19 17 14 16 17 17 16 17 16 17 22 18 32 32 29 29 27 25 25
42 42 41 41 37 33 34 31 30 33 33 33 32 34 36 37 35 35 33 25 23 23 20 14 12 11 11 14 17 13 16 14 15 16 16 22 26 30 31 28 32 28 25
41 41 41 38 32 31 30 31 32 32 33 32 33 35 35 36 32 32 36 24 15 16 15 8 8 9 11 12 12 13 15 17 20 24 19 20 25 28 25 33 30 28 28
41 40 39 35 29 28 26 30 33 31 32 33 32 32 35 34 31 30 34 24 8 2 8 8 7 10 11 11 12 13 17 22 23 26 24 24 23 22 26 31 33 33 32
39 38 37 31 28 26 26 28 28 29 31 30 28 31 32 30 29 25 25 17 12 6 1 5 10 14 13 11 11 3 19 22 27 23 25 26 22 22 24 24 26 30 31
38 37 34 29 27 26 26 24 26 29 28 26 26 26 25 24 23 18 17 16 12 7 3 3 10 16 16 15 14 11 9 19 20 21 23 23 21 20 21 23 24 24 26
35 36 32 27 26 24 24 27 29 26 27 27 25 23 23 24 20 17 12 9 9 8 6 3 5 13 15 17 17 16 17 20 21 18 20 20 20 20 21 22 25 27 28
32 33 29 24 23 24 24 26 27 28 28 26 24 22 21 27 25 17 13 9 9 6 5 4 2 4 11 16 18 18 18 18 16 17 20 20 20 20 19 20 22 26 29
31 32 25 21 21 23 23 23 24 26 25 25 25 25 21 23 28 25 15 9 5 3 2 5 9 10 10 10 15 20 21 20 19 21 22 21 19 18 16 21 22 23 25
30 29 23 20 20 21 21 22 24 24 24 24 26 28 26 25 25 28 22 9 6 4 4 2 1 3 7 13 15 17 20 21 22 23 21 20 18 18 19 23 25 24 25
31 27 20 18 18 19 19 21 24 24 23 24 25 27 27 25 22 22 24 18 7 4 3 3 2 1 3 9 15 19 21 22 21 22 22 21 20 16 21 23 23 20 22
30 25 19 17 17 17 18 21 23 24 23 24 26 26 24 24 23 22 21 21 15 10 4 2 3 2 2 5 11 16 20 23 24 24 23 22 19 21 26 25 24 23 20
28 23 17 15 16 16 16 19 22 24 24 26 25 24 25 26 25 23 22 21 15 9 7 5 4 4 7 10 11 14 17 21 26 26 25 24 24 23 23 26 23 24 26
27 22 17 14 14 15 16 18 20 23 24 26 25 24 25 25 24 24 24 23 17 12 9 8 9 8 4 6 12 17 22 22 19 19 20 24 25 21 18 21 22 21 19
27 22 18 14 12 14 15 17 19 21 22 24 26 25 24 23 23 22 21 20 16 14 14 17 18 16 14 12 9 10 15 20 21 20 20 21 22 23 19 18 17 19 22
24 22 18 15 13 13 15 17 18 19 20 21 23 23 22 22 23 24 24 17 15 15 18 21 24 23 21 20 17 15 15 16 15 16 16 18 19 18 19 24 26 28 23

GFSGL_700_spd_063.txt.gz
Wind_Speed
40 45 49 46 46 47 49 49 50 51 52 52 54 55 55 56 56 56 54 52 49 47 46 44 43 40 41 41 40 40 41 41 44 41 37 32 31 34 37 38 42 47 53
46 44 42 42 44 45 47 49 50 50 51 53 53 54 54 54 53 51 48 46 45 44 42 39 35 31 32 33 35 38 40 39 41 41 35 34 33 31 35 38 38 44 49
39 39 39 42 44 46 46 47 49 51 52 52 52 52 52 49 47 45 44 42 38 34 32 32 31 32 33 31 32 35 36 36 36 38 36 33 33 32 34 36 34 37 46
37 39 41 43 44 44 46 48 50 50 51 52 51 50 47 44 42 40 36 33 31 33 33 33 34 35 36 35 33 33 33 33 32 34 35 32 32 30 30 31 32 33 41
39 41 42 42 42 44 47 48 49 50 50 49 48 44 40 40 36 33 32 34 37 38 36 34 34 33 33 32 35 30 26 28 29 25 25 27 28 28 28 27 27 29 37
40 40 40 42 44 46 47 48 49 48 48 47 42 38 36 33 33 34 34 36 36 35 37 36 37 35 37 32 33 33 30 28 27 31 32 30 26 18 23 23 25 29 38
40 39 41 43 45 46 47 47 47 47 46 41 35 34 33 33 34 33 32 35 37 37 39 41 41 39 37 35 30 31 32 34 34 35 33 31 32 25 22 27 28 34 36
38 39 42 44 45 45 45 45 46 45 41 35 32 33 35 33 34 33 32 35 37 35 33 34 36 37 37 33 31 29 31 30 33 35 37 33 31 19 20 29 27 29 33
38 41 42 44 44 44 44 44 43 41 34 30 30 33 34 33 34 33 33 34 32 32 36 36 36 35 27 24 26 24 22 26 29 30 33 34 32 27 27 24 26 24 29
40 41 42 42 43 43 43 42 41 36 31 30 31 31 34 34 32 30 31 31 30 38 35 36 24 23 23 21 20 20 24 20 22 23 23 23 23 25 27 27 27 26 24
40 41 41 40 41 42 42 40 37 32 30 29 30 31 31 31 31 32 32 31 27 35 29 23 13 10 13 14 14 16 14 12 15 17 21 23 24 23 24 24 28 27 21
40 40 39 39 39 39 39 36 31 30 29 29 30 31 30 30 33 33 32 25 23 22 22 16 9 5 8 11 11 13 11 11 13 15 18 17 19 16 25 22 26 21 23
38 38 38 37 37 37 36 30 28 28 29 29 30 31 31 31 33 29 30 21 17 14 19 11 10 7 4 5 7 9 13 12 14 16 15 15 12 16 24 26 19 20 36
38 37 37 37 35 35 30 26 27 27 27 28 29 29 25 31 34 30 31 23 12 11 11 14 9 4 2 4 5 7 9 7 13 12 16 15 17 18 24 17 19 28 30
37 37 37 36 36 33 25 25 26 24 25 26 26 24 29 32 33 31 28 25 13 9 12 10 12 5 4 3 3 6 6 6 14 15 17 18 20 22 21 16 22 22 23
37 37 37 35 36 29 25 23 23 24 24 25 25 23 29 32 31 27 23 23 12 9 8 9 11 9 8 5 2 5 4 12 13 16 18 16 18 22 22 20 17 22 21
36 36 35 36 32 25 24 25 25 22 26 26 25 26 29 29 26 23 25 19 10 8 6 5 6 4 8 6 4 2 3 11 15 17 20 18 28 19 16 19 22 31 24
35 35 33 35 28 23 23 23 24 27 29 27 27 28 26 25 24 26 21 17 7 8 7 7 4 3 7 7 7 7 13 15 17 16 20 19 17 17 16 15 18 24 23
34 35 32 33 25 22 22 21 23 26 28 29 28 25 23 23 26 24 18 14 8 6 6 6 8 9 5 8 10 12 12 17 19 18 20 19 17 15 15 18 20 20 21
32 33 31 31 24 20 21 21 22 25 27 28 28 28 25 24 26 23 20 15 10 7 6 6 7 7 9 11 12 15 18 18 19 19 17 17 16 14 14 17 19 21 22
32 32 30 29 23 20 20 21 22 24 26 27 29 29 28 28 29 27 23 17 12 8 5 5 6 8 8 10 14 17 20 21 21 21 18 18 17 17 17 18 18 20 21
31 30 30 29 24 20 19 20 22 24 26 27 28 27 26 27 29 28 24 19 14 10 8 5 6 8 9 9 13 17 19 23 22 21 19 21 20 19 17 16 17 20 22
30 29 29 28 24 21 19 20 21 23 24 26 27 27 26 30 30 27 22 19 17 15 12 9 8 10 12 11 13 17 19 22 25 24 24 24 22 20 18 18 21 24 26
29 28 29 28 24 23 21 20 20 21 23 24 25 25 26 30 29 22 19 18 18 18 17 14 9 0 13 13 14 18 20 21 24 27 28 26 24 21 19 19 23 25 26
28 26 28 27 24 24 22 20 20 20 21 22 23 23 24 29 23 18 16 17 19 20 21 21 17 8 3 11 17 19 22 23 25 26 26 26 25 22 21 21 21 25 24
27 25 27 26 23 23 23 22 21 20 20 21 21 22 24 26 19 18 16 14 16 17 19 22 23 20 9 8 16 20 23 24 24 25 25 25 25 25 24 23 27 26 24